Grand Canyon, AZ

8:44 PM MST on February 12, 2016 (GMT -0700)
Grand Canyon National Park

Weather History for KGCN - December, 2013

Change the Weather History Date:

Thursday, December 5, 2013

  Actual Average (WUND) Record (WUND)
Temperature  
Mean Temperature 14 °F -  
Max Temperature 26 °F - - (-1)
Min Temperature 3 °F - - (-1)
Degree Days  
Heating Degree Days 50    
Moisture  
Dew Point 4 °F    
Average Humidity 69    
Maximum Humidity 88    
Minimum Humidity 37    
Precipitation  
Precipitation 0.01 in - - ()
Sea Level Pressure  
Sea Level Pressure 30.00 in    
Wind  
Wind Speed 2 mph (SW)    
Max Wind Speed 10 mph    
Max Gust Speed 18 mph    
Visibility 10 miles    
Events      
Averages and records for this station are not official NWS values.
T = Trace of Precipitation, MM = Missing Value Source: NWS Daily Summary

Daily Weather History Graph

Daily Weather History Graph

Search for Another Location

Airport or City:

Trip Planner

Search our weather history database for the weather conditions in past years. The results will help you decide how hot, cold, wet, or windy it might be!

Date:

Astronomy

Dec. 05, 2013 Rise Set
Actual Time 7:24 AM MST 5:14 PM MST
Civil Twilight 6:56 AM MST 5:42 PM MST
Nautical Twilight 6:24 AM MST 6:14 PM MST
Astronomical Twilight 5:53 AM MST 6:45 PM MST
Moon 9:50 AM MST (12/5) 8:36 PM MST (12/5)
Length of Visible Light 10h 46m
Length of Day
9h 49m
Waxing Crescent, 11% of the Moon is Illuminated
Dec 5
Waxing Crescent
Dec 9
First Quarter
Dec 17
Full
Dec 25
Last Quarter
Jan 1
New

Hourly Weather History & Observations

Time (MST) Temp. Windchill Dew Point Humidity Pressure Visibility Wind Dir Wind Speed Gust Speed Precip Events Conditions
12:54 AM 5.0 °F - 1.9 °F 87% 29.97 in 10.0 mi Calm Calm - N/A   Clear
1:54 AM 5.0 °F - 1.9 °F 87% 29.97 in 10.0 mi Calm Calm - N/A   Clear
2:54 AM 3.9 °F - 1.0 °F 88% 29.96 in 10.0 mi Calm Calm - N/A   Clear
3:54 AM 5.0 °F - 1.0 °F 84% 29.96 in 10.0 mi Calm Calm - N/A   Clear
4:54 AM 5.0 °F - 1.0 °F 84% 29.96 in 10.0 mi Calm Calm - N/A   Clear
5:54 AM 5.0 °F - 1.0 °F 84% 29.97 in 10.0 mi Calm Calm - N/A   Clear
6:54 AM 3.9 °F - -0.0 °F 84% 30.01 in 10.0 mi Calm Calm - N/A   Partly Cloudy
7:54 AM 10.0 °F - 6.1 °F 84% 30.01 in 10.0 mi Calm Calm - N/A   Scattered Clouds
8:54 AM 18.0 °F - 12.0 °F 78% 29.98 in 10.0 mi Calm Calm - N/A   Scattered Clouds
9:54 AM 23.0 °F 13.9 °F 15.1 °F 72% 29.98 in 10.0 mi SSW 8.1 mph - N/A   Scattered Clouds
10:54 AM 23.0 °F 12.4 °F 12.9 °F 65% 29.99 in 10.0 mi SSW 10.4 mph - N/A   Clear
11:54 AM 25.0 °F 14.8 °F 8.1 °F 49% 29.98 in 10.0 mi SW 10.4 mph - N/A   Clear
12:54 PM 25.0 °F 16.3 °F 9.0 °F 51% 29.97 in 10.0 mi WSW 8.1 mph - 0.01 in   Clear
1:54 PM 25.0 °F 14.8 °F 1.9 °F 37% 29.97 in 10.0 mi WSW 10.4 mph 18.4 mph N/A   Clear
2:54 PM 26.1 °F 16.8 °F 5.0 °F 41% 29.97 in 10.0 mi WSW 9.2 mph 17.3 mph N/A   Clear
3:54 PM 25.0 °F 16.3 °F 6.1 °F 45% 29.97 in 10.0 mi SW 8.1 mph - N/A   Clear
4:54 PM 23.0 °F 14.7 °F 3.9 °F 44% 29.99 in 10.0 mi West 6.9 mph - N/A   Clear
5:54 PM 19.0 °F - -0.9 °F 42% 30.03 in 10.0 mi Calm Calm - N/A   Clear
6:54 PM 12.0 °F - 3.0 °F 67% 30.08 in 10.0 mi Calm Calm - N/A   Clear
7:54 PM 12.9 °F - 1.9 °F 62% 30.05 in 10.0 mi Calm Calm - N/A   Clear
8:54 PM 7.0 °F - 1.9 °F 80% 30.06 in 10.0 mi Calm Calm - N/A   Clear
9:54 PM 6.1 °F - 1.9 °F 83% 30.06 in 10.0 mi Calm Calm - N/A   Clear
10:54 PM 6.1 °F - 1.0 °F 80% 30.08 in 10.0 mi Calm Calm - N/A   Clear
11:54 PM 3.0 °F - -0.0 °F 87% 30.10 in 10.0 mi Calm Calm - N/A   Clear